Location: Kimberly
(42.5380°N, 114.3640°W)
Time: 15:30:28
(UTC-06:00)

N. Korean satellite - Visible Passes

Search period start: 07 October 2022 00:00
Search period end: 17 October 2022 00:00
Orbit: 425 x 467 km, 97.3° (Epoch: 06 October)

Date Brightness Start Highest point End Pass type
(mag) Time Alt. Az. Time Alt. Az. Time Alt. Az.
07 Oct 9.3 06:11:04 10° NE 06:13:29 19° E 06:15:54 10° SE visible
08 Oct 6.3 07:06:52 10° N 07:10:05 65° WNW 07:13:20 10° SSW visible
09 Oct 8.1 06:30:48 10° NNE 06:33:51 35° E 06:36:52 10° SSE visible
10 Oct 9.8 05:56:00 10° ENE 05:57:21 12° E 05:58:43 10° ESE visible
11 Oct 6.6 06:50:37 10° NNE 06:53:53 71° ESE 06:57:09 10° S visible
12 Oct 9.1 06:14:46 10° NE 06:17:22 21° E 06:19:57 10° SSE visible
13 Oct 6.4 07:10:23 10° N 07:13:36 57° WNW 07:16:50 10° SSW visible
14 Oct 7.9 06:33:57 10° NNE 06:37:03 39° E 06:40:10 10° S visible
15 Oct 9.8 05:58:35 10° ENE 06:00:16 13° E 06:01:56 10° ESE visible
16 Oct 6.5 06:53:07 10° NNE 06:56:25 77° ESE 06:59:44 10° S visible
